Temperature
9 9 8 8 8 8 8 8 8 7 7 7 7 7 7 7 7 7 7 8 9 9 9 9 8 8 7 7 7 7 7 7 7 7 8 8 8 8 8 8 8 9 9
9 9 9 8 8 8 8 8 7 7 7 7 7 7 7 7 7 7 7 8 8 9 9 8 8 8 7 7 6 6 6 7 7 7 7 7 7 7 7 7 8 8 8
9 9 9 8 8 8 8 8 7 7 7 7 7 7 7 7 8 7 8 8 8 8 8 8 8 8 7 7 6 6 6 6 6 6 6 7 7 7 7 7 7 7 8
9 9 9 8 8 8 8 8 7 7 7 7 7 7 7 8 8 8 8 8 7 8 7 8 7 7 7 7 7 6 6 6 6 6 6 6 6 6 6 6 6 6 7
9 9 9 9 8 8 8 8 7 7 7 7 7 7 7 8 8 8 7 7 7 7 7 7 7 7 7 7 7 7 6 6 6 5 5 5 5 6 6 6 6 6 6
9 9 9 9 8 8 8 7 7 7 7 7 7 7 8 8 8 7 7 7 7 7 7 7 6 6 6 6 6 6 6 6 5 5 5 5 5 5 5 5 5 5 5
9 9 9 9 8 8 8 7 7 7 7 7 7 7 7 7 7 7 7 6 6 6 6 6 6 6 6 6 6 6 6 6 5 4 4 4 4 4 4 4 4 5 5
9 9 9 8 8 8 8 7 7 7 6 6 6 5 6 6 6 6 6 6 6 5 5 5 5 5 5 5 5 5 5 5 5 4 4 3 3 3 3 4 4 4 4
9 9 9 8 8 8 7 7 7 7 6 6 6 5 5 5 5 5 5 5 5 4 4 4 5 5 4 4 4 4 4 4 4 3 3 3 2 3 3 3 3 3 4
9 9 9 8 8 8 7 7 7 6 6 5 5 5 4 4 3 3 4 4 3 3 3 3 4 4 4 3 3 4 3 3 3 3 2 2 2 2 2 2 2 3 3
9 9 9 8 8 7 7 7 6 6 6 5 5 4 4 3 3 2 2 3 3 2 2 2 2 3 3 2 2 2 2 2 2 2 2 2 1 1 1 1 1 2 2
9 9 8 8 8 7 7 6 6 6 6 5 5 4 3 3 2 1 1 2 2 2 1 1 1 1 1 1 1 1 1 1 1 1 1 1 1 1 1 0 1 1 1
9 9 8 8 7 7 7 6 6 6 5 5 4 4 3 3 2 1 0 0 0 1 1 1 0 0 0 0 0 0 0 0 0 -0 -0 -0 -0 -0 -0 -1 -1 -0 -0
9 8 8 7 7 7 6 6 5 5 5 4 4 3 3 2 2 1 0 -1 -1 -0 0 0 0 -0 -0 -1 -0 -0 -0 -1 -1 -1 -2 -2 -2 -2 -2 -2 -2 -1 -1
8 8 8 7 7 6 6 5 5 5 4 4 3 3 2 2 1 1 0 -1 -2 -2 -1 -1 -1 -1 -2 -2 -1 -1 -1 -1 -2 -2 -2 -2 -3 -3 -3 -3 -3 -2 -2
8 8 7 7 6 6 5 5 5 4 4 3 3 3 2 1 1 0 -0 -1 -2 -2 -3 -2 -2 -2 -2 -2 -2 -2 -2 -2 -2 -2 -2 -3 -3 -3 -3 -3 -3 -3 -3
8 7 7 6 6 5 5 4 4 4 3 3 2 2 2 1 0 -0 -1 -1 -2 -3 -3 -2 -2 -2 -3 -3 -4 -4 -4 -4 -3 -3 -3 -3 -4 -4 -4 -4 -3 -3 -3
7 7 6 6 5 5 4 4 4 3 3 2 2 1 1 1 0 -1 -1 -2 -2 -3 -3 -3 -3 -3 -4 -4 -5 -5 -5 -5 -5 -4 -4 -4 -4 -4 -4 -4 -4 -3 -3
7 6 6 5 5 5 4 4 3 3 2 2 1 1 1 0 -0 -1 -2 -2 -3 -3 -4 -4 -4 -4 -5 -5 -5 -5 -5 -5 -5 -5 -5 -5 -5 -5 -4 -4 -4 -4 -4
6 6 5 5 5 4 4 3 3 2 2 2 1 1 0 -0 -1 -1 -2 -3 -3 -4 -4 -5 -5 -5 -5 -5 -5 -5 -5 -5 -5 -5 -5 -5 -5 -5 -5 -5 -4 -4 -4
6 5 5 4 4 4 3 3 2 2 1 1 0 0 -0 -1 -1 -2 -3 -3 -4 -4 -5 -5 -5 -5 -5 -5 -5 -5 -5 -5 -5 -5 -5 -5 -5 -5 -5 -5 -5 -5 -4
5 5 4 4 3 3 3 2 2 1 0 -0 -0 -1 -1 -1 -2 -2 -3 -4 -4 -5 -5 -5 -5 -5 -5 -5 -5 -5 -6 -6 -6 -5 -6 -5 -5 -6 -5 -5 -5 -5 -5
5 4 4 3 3 3 2 2 1 0 -0 -1 -1 -2 -2 -2 -3 -3 -4 -4 -5 -5 -5 -5 -5 -6 -6 -6 -6 -6 -6 -6 -6 -6 -6 -6 -6 -6 -6 -5 -5 -5 -5
4 4 3 3 2 2 2 1 1 -0 -1 -1 -2 -2 -3 -3 -4 -4 -5 -5 -5 -5 -5 -6 -6 -6 -6 -6 -6 -6 -6 -6 -6 -6 -6 -6 -6 -6 -6 -5 -5 -5 -5
3 3 3 2 2 1 1 1 -0 -1 -2 -2 -3 -3 -3 -4 -4 -5 -5 -5 -6 -6 -6 -6 -6 -6 -6 -6 -6 -6 -6 -7 -7 -6 -6 -6 -6 -6 -6 -6 -5 -5 -5
3 2 2 2 1 1 0 -0 -1 -2 -2 -3 -3 -4 -4 -4 -5 -5 -6 -6 -6 -6 -6 -6 -6 -6 -6 -7 -7 -7 -7 -7 -7 -7 -7 -7 -7 -7 -6 -6 -6 -6 -6
Wind_Speed
5 5 5 4 4 4 4 5 6 6 7 7 7 8 9 10 10 9 8 5 8 10 11 11 11 11 11 12 12 12 13 13 13 14 14 15 15 15 16 16 17 17 17
6 5 5 5 5 5 5 5 6 6 6 7 8 9 10 10 9 9 9 7 4 6 7 8 8 9 9 10 11 11 12 13 14 14 15 15 16 16 16 17 17 18 18
7 7 5 5 4 4 5 5 5 6 6 6 8 9 9 9 9 9 8 7 4 2 4 6 7 8 9 10 11 12 13 14 15 15 16 16 17 17 17 17 18 18 19
8 7 5 4 3 3 3 4 4 5 5 6 7 7 7 7 9 8 6 4 3 2 2 4 6 8 10 11 13 14 15 15 16 17 17 18 18 19 19 19 19 20 20
7 6 4 3 3 2 2 2 4 5 6 6 7 7 7 7 6 5 4 2 1 2 3 2 4 6 10 12 14 15 16 17 18 18 19 19 20 20 21 21 21 21 22
6 5 4 4 3 2 2 2 3 3 4 6 7 7 7 5 4 3 2 2 2 3 4 5 6 7 10 13 15 16 17 18 19 19 20 20 21 21 22 22 23 23 23
6 6 4 4 3 2 2 2 2 3 4 5 6 6 5 3 3 2 2 3 4 5 5 6 8 10 11 14 14 15 17 19 19 20 21 21 22 22 23 23 24 24 24
6 5 5 4 3 2 2 1 1 2 2 3 4 5 4 3 0 3 5 5 6 6 6 8 11 12 12 12 12 16 17 19 20 21 22 22 23 23 24 24 24 25 25
7 6 5 4 4 3 2 1 1 2 3 2 3 3 4 4 7 5 5 6 6 7 8 10 12 13 13 12 13 13 16 19 21 22 23 23 24 24 24 25 25 25 26
7 7 6 5 4 3 3 2 1 1 3 3 2 3 4 4 5 6 5 6 7 9 10 10 12 13 13 12 13 16 17 19 21 23 24 24 25 25 26 26 26 26 26
7 7 7 6 5 3 3 2 2 2 3 4 4 4 5 5 7 6 9 10 9 9 9 10 11 12 13 13 13 15 18 21 23 24 24 25 25 26 26 27 27 27 27
6 7 6 5 5 4 3 3 3 3 3 4 4 4 5 5 6 7 10 13 13 11 11 10 10 11 12 14 15 17 20 22 23 24 24 25 26 26 27 27 27 27 27
6 7 6 6 5 4 4 3 3 4 4 5 6 5 6 7 7 8 10 12 14 13 11 9 9 11 12 14 15 17 20 22 23 24 24 26 26 27 27 27 28 28 28
7 7 7 6 5 5 4 4 4 4 5 6 7 7 7 7 7 8 9 11 13 13 12 14 11 11 12 14 17 20 20 22 23 24 25 26 26 27 27 28 28 28 28
6 8 7 6 5 5 5 4 5 5 6 6 7 8 8 8 8 8 9 9 10 13 15 14 11 11 13 16 19 20 21 23 25 26 27 26 26 26 27 27 27 27 27
7 7 7 6 5 5 5 5 6 6 7 7 7 9 9 8 8 8 9 10 11 13 15 13 14 15 15 16 20 21 22 26 26 26 26 26 26 27 27 27 27 27 27
8 8 7 6 6 6 6 6 7 7 8 9 9 10 11 11 10 10 10 10 11 12 16 17 15 15 17 17 17 19 20 21 21 25 26 27 28 28 28 27 27 27 27
8 7 7 6 6 6 7 8 8 9 10 11 11 11 12 10 13 12 11 12 12 13 15 19 17 15 18 17 17 17 17 18 20 24 27 28 29 28 28 27 27 26 26
8 7 7 7 7 7 7 8 9 10 11 11 12 12 13 13 14 13 13 13 13 13 14 16 17 15 15 15 17 17 17 15 18 21 24 25 26 26 27 27 27 26 25
8 7 7 7 7 7 7 8 9 10 11 12 12 13 14 14 15 15 14 15 14 14 15 15 16 15 15 16 15 15 15 14 14 16 19 21 23 25 25 25 25 24 23
7 7 7 7 7 7 7 8 8 10 11 13 13 14 14 16 18 16 14 14 14 13 13 14 15 15 15 14 14 14 15 15 15 14 15 14 14 14 15 18 20 20 21
7 7 7 8 8 7 9 12 12 12 12 13 14 14 15 16 18 20 22 22 20 17 16 15 15 16 18 17 15 14 15 15 15 12 13 14 13 14 14 13 18 21 21
7 8 8 8 10 10 11 13 15 13 14 15 15 15 13 13 16 15 17 20 21 23 23 19 18 19 19 18 17 17 16 16 16 14 14 15 14 14 13 14 19 20 20
7 8 8 9 10 10 12 14 15 14 15 15 15 16 16 16 14 15 15 16 17 18 19 16 15 17 18 18 16 16 16 15 15 13 12 13 13 13 12 11 15 16 17
7 8 8 9 10 11 12 14 15 12 13 15 15 15 15 16 18 20 18 18 19 17 18 21 22 22 25 24 20 14 13 13 14 13 11 10 11 12 12 11 10 13 13
7 7 8 9 11 12 12 14 15 11 13 13 13 14 16 18 20 21 17 17 17 17 16 16 17 17 16 17 19 13 11 12 13 11 9 8 10 9 8 7 7 7 8
Wind_Direction
217 226 235 241 259 273 275 280 287 295 297 302 301 302 303 304 302 301 301 307 311 314 315 316 316 316 316 315 315 314 313 312 309 308 305 301 298 296 295 294 294 292 290
222 229 238 243 252 260 272 278 284 291 296 300 302 303 302 302 298 300 302 303 300 319 326 330 333 334 332 330 327 325 322 320 317 315 312 308 304 299 296 295 293 291 290
222 229 239 243 249 254 263 275 282 285 293 298 299 304 304 302 301 299 302 304 308 333 348 353 352 350 349 343 337 332 326 322 318 315 311 308 305 301 296 293 292 292 290
221 227 237 242 241 244 259 275 288 293 298 303 307 308 302 301 298 303 299 296 307 325 18 24 3 358 349 341 333 326 321 316 312 309 306 304 303 300 296 293 290 289 288
216 221 228 233 222 224 244 273 288 302 306 311 310 306 304 302 305 296 289 279 313 324 331 359 339 342 339 333 327 321 317 312 309 306 304 302 299 296 294 291 288 286 285
203 204 203 205 202 214 245 269 289 305 311 317 309 302 300 303 295 290 276 252 284 309 318 322 319 324 323 324 322 318 314 311 308 305 302 299 297 295 292 290 288 285 284
183 185 186 186 195 218 243 274 297 302 316 327 312 312 302 282 288 268 269 282 291 298 301 311 319 322 316 316 313 315 315 312 308 305 302 299 297 294 291 288 286 285 282
173 174 184 184 183 190 198 212 271 300 319 335 328 322 320 297 242 270 289 291 297 296 297 305 315 315 312 311 310 310 312 312 310 306 303 300 297 294 292 289 287 285 283
170 172 177 177 173 187 190 193 235 285 305 315 324 320 317 313 318 288 285 292 296 297 301 306 307 308 307 305 305 307 311 311 309 307 304 302 299 296 293 291 288 286 285
168 167 168 169 169 174 177 181 214 264 284 296 296 276 282 294 296 304 292 287 293 296 297 300 303 304 302 301 300 301 306 309 309 307 305 304 301 298 295 293 290 288 287
163 163 165 167 169 174 182 187 210 242 264 281 285 284 278 275 267 276 295 302 299 292 294 295 296 296 297 297 297 299 304 305 306 305 305 303 301 299 297 294 293 291 289
163 166 168 172 177 182 189 203 222 241 258 265 269 268 272 275 281 279 286 298 301 302 299 292 289 290 292 294 293 295 298 300 301 301 302 301 300 298 296 294 292 291 289
174 175 176 181 185 189 198 211 231 248 255 261 266 271 270 269 277 279 283 292 297 299 297 289 282 284 289 292 294 297 296 296 296 297 299 298 297 296 294 293 291 290 288
177 174 180 187 191 197 206 221 240 250 258 261 266 268 269 270 270 269 276 289 296 296 293 292 294 288 288 292 294 299 294 294 294 295 296 295 295 294 292 291 289 288 287
166 175 184 191 197 206 218 231 247 255 261 264 268 269 268 270 269 269 270 271 279 292 295 298 297 293 291 289 293 295 295 295 296 296 295 294 294 292 290 289 288 287 285
170 178 189 197 206 215 226 238 253 259 263 266 266 269 271 272 272 269 267 268 267 274 284 289 293 293 294 290 291 292 293 295 294 293 294 294 293 292 291 289 288 286 285
179 187 195 204 215 225 235 244 253 261 265 270 269 269 272 274 275 273 271 269 269 271 279 287 290 294 295 293 293 291 291 292 292 292 293 294 294 293 291 290 289 287 286
186 193 200 211 222 233 243 252 260 262 266 271 273 274 274 276 273 274 273 272 274 274 279 288 292 295 294 294 291 290 290 289 289 291 292 293 293 292 291 290 289 288 287
190 197 208 219 228 236 245 254 262 267 269 272 274 274 275 276 277 277 277 277 278 279 278 283 289 293 292 291 292 289 288 288 288 289 291 291 291 291 291 290 289 289 288
196 205 215 226 232 237 246 255 262 266 270 271 271 271 272 272 274 278 280 280 280 280 280 280 284 288 289 290 289 290 291 290 290 292 291 290 290 290 289 288 288 288 289
203 211 222 232 239 238 238 243 253 259 266 271 272 270 270 269 271 273 275 277 279 278 280 281 283 287 288 291 291 292 292 293 291 291 291 289 291 290 291 289 286 285 285
207 216 228 239 247 250 251 258 268 273 272 273 275 275 275 272 272 273 274 277 279 280 282 282 284 284 287 290 292 291 291 292 292 293 292 291 291 288 287 285 284 286 286
215 226 237 246 255 260 259 267 272 278 279 278 278 279 279 277 278 278 281 282 280 278 276 278 280 282 287 290 292 291 288 287 287 291 293 289 288 286 286 283 283 285 285
226 237 246 254 262 267 266 273 279 279 278 278 278 279 281 282 282 283 283 281 279 277 276 276 276 278 281 285 284 285 287 287 285 283 281 284 289 289 290 287 287 286 288
236 245 253 260 266 272 270 276 282 284 280 280 280 279 279 281 283 286 286 285 285 283 281 278 279 281 284 288 289 292 291 291 292 294 292 285 291 296 295 291 286 287 291
245 254 258 264 269 274 277 278 282 281 282 284 283 280 277 278 284 288 288 288 287 289 290 290 287 285 286 287 288 283 284 286 289 292 294 292 294 302 297 291 295 298 295
Height
1563 1563 1563 1563 1562 1562 1561 1560 1559 1558 1556 1555 1553 1551 1549 1548 1546 1544 1541 1538 1537 1535 1534 1533 1532 1531 1530 1529 1528 1528 1527 1526 1525 1524 1523 1522 1521 1520 1519 1519 1518 1517 1517
1562 1562 1562 1561 1561 1560 1559 1558 1557 1556 1554 1553 1551 1549 1547 1545 1543 1541 1538 1536 1534 1532 1531 1530 1529 1528 1527 1526 1525 1524 1523 1522 1521 1519 1518 1517 1517 1516 1515 1514 1513 1513 1512
1560 1560 1560 1560 1559 1558 1557 1556 1555 1554 1552 1550 1549 1547 1544 1542 1540 1538 1536 1534 1532 1530 1529 1527 1526 1525 1524 1522 1521 1520 1519 1517 1516 1515 1514 1513 1512 1511 1510 1509 1508 1507 1507
1558 1558 1558 1558 1557 1556 1555 1554 1553 1552 1550 1548 1546 1544 1542 1539 1537 1535 1533 1531 1530 1528 1527 1525 1524 1522 1521 1519 1518 1516 1514 1513 1511 1510 1509 1508 1506 1505 1505 1504 1503 1502 1501
1556 1556 1556 1556 1555 1554 1553 1552 1551 1550 1548 1546 1544 1541 1539 1537 1534 1532 1530 1529 1528 1527 1525 1523 1521 1520 1518 1516 1514 1512 1510 1508 1507 1505 1503 1502 1501 1499 1498 1498 1497 1496 1495
1554 1554 1554 1553 1553 1552 1551 1550 1549 1547 1545 1543 1541 1539 1536 1533 1531 1530 1529 1528 1526 1524 1523 1521 1519 1517 1514 1512 1509 1507 1505 1503 1501 1499 1497 1496 1494 1493 1492 1491 1490 1489 1489
1551 1551 1551 1551 1550 1550 1549 1548 1546 1545 1543 1541 1539 1536 1534 1531 1529 1528 1528 1526 1525 1522 1520 1518 1516 1513 1510 1507 1504 1502 1499 1497 1495 1493 1491 1489 1488 1486 1485 1484 1483 1482 1482
1548 1548 1548 1548 1548 1547 1546 1545 1544 1543 1541 1539 1538 1535 1533 1532 1529 1527 1525 1524 1522 1520 1517 1515 1512 1508 1505 1501 1498 1496 1493 1490 1488 1486 1484 1483 1481 1480 1478 1477 1476 1475 1474
1545 1546 1546 1546 1545 1545 1544 1543 1542 1541 1540 1538 1536 1536 1534 1531 1528 1524 1522 1520 1518 1516 1513 1510 1506 1503 1500 1496 1493 1490 1487 1484 1481 1479 1477 1475 1474 1472 1471 1470 1469 1467 1466
1542 1543 1543 1543 1543 1542 1541 1540 1540 1538 1537 1536 1534 1532 1532 1529 1526 1522 1519 1516 1513 1510 1507 1504 1501 1497 1494 1491 1487 1484 1480 1477 1474 1472 1470 1468 1466 1464 1463 1461 1460 1459 1458
1539 1540 1540 1540 1540 1539 1539 1538 1537 1536 1534 1533 1531 1529 1527 1525 1523 1520 1515 1512 1509 1506 1502 1498 1494 1491 1488 1485 1481 1478 1474 1471 1468 1465 1462 1460 1457 1455 1454 1453 1451 1450 1449
1536 1537 1537 1537 1537 1536 1536 1535 1534 1532 1531 1529 1528 1526 1524 1522 1520 1517 1512 1507 1503 1500 1496 1492 1488 1485 1482 1478 1475 1471 1467 1464 1461 1458 1454 1452 1449 1447 1445 1444 1442 1441 1440
1533 1534 1534 1534 1534 1533 1533 1532 1530 1529 1527 1526 1524 1522 1520 1517 1515 1512 1508 1503 1498 1494 1490 1487 1483 1479 1475 1472 1468 1464 1460 1456 1453 1450 1447 1444 1441 1439 1436 1435 1433 1432 1430
1530 1530 1531 1531 1531 1530 1529 1528 1527 1525 1523 1521 1519 1517 1515 1512 1510 1507 1504 1499 1493 1488 1486 1483 1479 1475 1470 1466 1462 1458 1453 1449 1446 1442 1439 1436 1433 1430 1428 1426 1424 1423 1421
1526 1527 1527 1527 1527 1526 1525 1524 1523 1521 1519 1517 1515 1512 1510 1507 1504 1501 1498 1495 1491 1483 1477 1476 1473 1469 1464 1460 1456 1451 1447 1443 1439 1435 1431 1428 1425 1422 1420 1418 1416 1414 1413
1523 1523 1523 1523 1523 1522 1521 1520 1518 1516 1514 1512 1510 1507 1505 1502 1499 1495 1492 1489 1485 1480 1472 1468 1466 1463 1459 1454 1449 1445 1440 1435 1431 1427 1424 1420 1417 1414 1412 1410 1408 1406 1404
1519 1519 1520 1519 1519 1518 1516 1515 1513 1511 1509 1507 1504 1502 1499 1496 1492 1489 1486 1482 1479 1474 1467 1460 1459 1455 1451 1447 1442 1437 1433 1429 1424 1420 1417 1413 1410 1407 1404 1401 1399 1398 1396
1515 1515 1515 1515 1514 1513 1512 1510 1508 1506 1504 1501 1498 1495 1492 1489 1486 1483 1479 1475 1472 1468 1462 1454 1450 1447 1444 1439 1434 1430 1426 1422 1417 1413 1409 1405 1402 1398 1396 1393 1391 1389 1388
1510 1511 1510 1510 1509 1508 1506 1504 1502 1500 1498 1495 1492 1489 1486 1482 1479 1476 1472 1468 1464 1460 1456 1449 1443 1440 1436 1432 1428 1423 1419 1415 1411 1407 1402 1398 1394 1391 1388 1385 1383 1381 1379
1506 1506 1505 1505 1503 1502 1500 1499 1496 1494 1491 1488 1485 1482 1478 1475 1471 1468 1464 1460 1457 1453 1448 1443 1437 1433 1429 1425 1422 1416 1411 1408 1404 1400 1396 1392 1388 1384 1381 1378 1375 1373 1371
1501 1501 1500 1499 1498 1496 1494 1492 1489 1486 1483 1480 1477 1474 1470 1467 1463 1460 1456 1452 1449 1445 1441 1436 1431 1426 1422 1419 1415 1410 1405 1401 1397 1394 1389 1385 1382 1378 1374 1371 1368 1366 1364
1496 1495 1494 1493 1492 1490 1488 1486 1483 1479 1475 1472 1468 1465 1461 1458 1454 1451 1447 1444 1441 1437 1433 1429 1424 1420 1415 1413 1408 1404 1400 1394 1389 1388 1384 1378 1376 1371 1368 1364 1362 1359 1357
1490 1490 1489 1487 1485 1483 1481 1479 1475 1471 1467 1464 1460 1456 1453 1449 1446 1442 1438 1434 1431 1428 1426 1423 1417 1413 1409 1406 1402 1397 1393 1388 1383 1380 1377 1371 1368 1364 1361 1358 1355 1353 1351
1485 1484 1482 1481 1479 1476 1474 1471 1468 1463 1459 1455 1452 1449 1445 1441 1437 1434 1429 1425 1422 1419 1417 1413 1409 1405 1402 1398 1395 1391 1386 1381 1376 1374 1371 1365 1362 1359 1355 1352 1350 1347 1345
1479 1478 1476 1474 1471 1469 1467 1463 1460 1455 1450 1447 1443 1440 1436 1433 1429 1426 1422 1417 1413 1410 1408 1405 1401 1397 1394 1391 1388 1384 1379 1375 1369 1367 1365 1361 1357 1354 1350 1348 1345 1343 1341
1473 1471 1469 1467 1464 1461 1459 1455 1452 1447 1442 1438 1434 1431 1428 1424 1421 1418 1415 1410 1406 1402 1399 1395 1392 1389 1385 1382 1379 1377 1373 1369 1364 1361 1359 1357 1353 1350 1346 1344 1342 1340 1337